Regional Weather Roundup
Issued by NWS

Home | Current Version | Previous Version | Text Only | Print | Product List | Glossary On
Versions: 1 2 3 4 5 6 7 8 9 10 11 12 13 14 15 16 17 18 19 20 21 22 23 24 25 26 27 28 29 30 31 32 33 34 35 36 37 38 39 40 41 42 43 44 45 46 47 48 49 50
000
ASUS46 KLOX 271912
RWRCA

SOUTHERN CALIFORNIA WEATHER ROUNDUP
NATIONAL WEATHER SERVICE OXNARD CALIFORNIA
1100 AM PST TUE JAN 27 2015

NOTE: "FAIR" INDICATES FEW OR NO CLOUDS BELOW 12,000 FEET WITH NO
SIGNIFICANT WEATHER AND/OR OBSTRUCTIONS TO VISIBILITY.

  -  STATIONS PRECEEDED BY AN ASTERISK (*) ARE NOT NWS OR FAA
     STATIONS AND ARE NOT SUBJECT TO NWS AND FAA QUALITY CONTROL.

CAZ041-042-087-272000-
LA AND ORANGE COUNTY COASTAL AREAS


CITY           SKY/WX    TMP DP  RH WIND       PRES   REMARKS
L.A. DOWNTOWN  SUNNY     69  51  52 CALM      30.19S
L.A. AIRPORT   MOSUNNY   67  55  65 CALM      30.19F
LONG BEACH     SUNNY     69  55  60 CALM      30.19S

CITY           SKY/WX    TMP DP  RH WIND       PRES   REMARKS
AVALON           N/A     61 N/A N/A MISG        N/A
FULLERTON      SUNNY     69  50  50 CALM      30.18F
*GETTY CENTER    N/A     63  54  72 NE2         N/A
HAWTHORNE      SUNNY     68  52  56 CALM      30.19F
*LEO CARRILLO    N/A     66  56  71 SW6         N/A
*LOS ALAMITOS  MOSUNNY   68  53  58 CALM      30.18F
*REDONDO BEACH   N/A     68  59  73 CALM      30.20S
SANTA ANA      MOSUNNY   70  49  47 CALM      30.18F
STA MONICA APT SUNNY     70  51  51 CALM      30.19F
TORRANCE       MOSUNNY   68  55  64 CALM      30.20F
*UCLA            N/A     68  50  52 CALM      30.16F

$$

CAZ547-548-048-272000-
LA COUNTY VALLEYS AND INLAND EMPIRE


CITY           SKY/WX    TMP DP  RH WIND       PRES   REMARKS
BURBANK        SUNNY     66  52  60 CALM      30.19F
VAN NUYS       MOSUNNY   66  52  60 VRB3      30.20S

CITY           SKY/WX    TMP DP  RH WIND       PRES   REMARKS
CORONA AIRPORT CLEAR     66  55  67 CALM      30.20F
CHINO          MOSUNNY   65  55  70 VRB5      30.21F
*CLAREMONT       N/A     69  53  56 E2          N/A
MARCH AFB      SUNNY     63  50  63 SE5       30.20F
*NORTHRIDGE      N/A     66  46  48 NE1         N/A
ONTARIO        MOSUNNY   66  50  56 SE5       30.20F
*PASADENA        N/A     68  57  68 E3          N/A
POMONA         SUNNY     63  54  72 SE5       30.23
RIVERSIDE      MOSUNNY   66  52  60 VRB5      30.20F
SAN BERNARDINO MOSUNNY   63  48  59 CALM      30.21F
*SAN GABRIEL     N/A     67  50  53 CALM      30.16S
*SAN RAFAEL HI   N/A     70  57  63 S2          N/A
*SAUGUS          N/A     55  54  95 CALM        N/A
*WHITEMAN AP   MOSUNNY   64  50  59 CALM      30.23S
*WHITTIER HILL   N/A     69  53  55 E6          N/A
*WOODLAND HILL   N/A     66  52  59 NE3         N/A

$$

CAZ054-055-272000-
LA AND SAN BERNARDINO COUNTY MOUNTAINS


CITY           SKY/WX    TMP DP  RH WIND       PRES   REMARKS
*ACTON           N/A     57  47  69 N3          N/A
*BIG BEAR AIRP CLEAR     43  32  65 W7        30.27F
*BIG PINES       N/A     40  35  81 W2          N/A
*CHILAO          N/A     48  39  71 SE13        N/A
MT WILSON NWS    N/A     48  43  81 MISG        N/A
SANDBERG       FOG       48  44  86 VRB3      30.25F VSB 1/4
*WARM SPRINGS    N/A     51  51 100 NE5         N/A

$$

CAZ028-029-059-060-099-272000-
ANTELOPE VALLEY AND SURROUNDING AREAS


CITY           SKY/WX    TMP DP  RH WIND       PRES   REMARKS
LANCASTER      CLOUDY    54  48  80 N3        30.25F
PALMDALE       CLOUDY    54  49  83 MISG      30.25S
*POPPY PARK      N/A     54  50  85 CALM        N/A

CITY           SKY/WX    TMP DP  RH WIND       PRES   REMARKS
29 PALMS       PTSUNNY   53  50  89 S5        30.32F
BARSTOW/DAGGET MOSUNNY   55  49  80 SE3       30.25F
BISHOP         CLOUDY    51  42  71 S13       30.21S
CHINA LAKE     PTSUNNY   53  50  89 CALM      30.25S
EDWARDS AFB    PTSUNNY   54  50  86 VRB2      30.23F
MOJAVE         PTSUNNY   50  50 100 CALM      30.25F
NEEDLES        CLOUDY    60  52  74 CALM      30.26F
VICTORVILLE    CLOUDY    52  48  87 N9        30.24F

$$

CAZ039-040-272000-
VENTURA AND SANTA BARBARA COUNTY COAST


CITY           SKY/WX    TMP DP  RH WIND       PRES   REMARKS
CAMARILLO      SUNNY     67  53  61 CALM      30.19F
NWS OXNARD       N/A     67  55  66 CALM      30.19S
OXNARD AIRPORT SUNNY     67  53  61 E8        30.20S
*POINT MUGU    PTSUNNY   65  55  70 NE3       30.21S
SBA APT/GOLETA MOSUNNY   64  55  72 VRB3      30.20F
*SANTA BARBARA   N/A     66  53  63 CALM      30.28F
*VENTURA         N/A     66  53  61 NE3       30.23S

$$

CAZ044-045-272000-
VENTURA COUNTY VALLEYS


CITY           SKY/WX    TMP DP  RH WIND       PRES   REMARKS
*SIMI VALLEY     N/A     62  54  75 NE2       30.18S
*OJAI            N/A     63  60  90 SE1       30.15F

$$

CAZ053-272000-
VENTURA COUNTY MOUNTAINS


CITY           SKY/WX    TMP DP  RH WIND       PRES   REMARKS
*LOCKWOOD VLY    N/A     45  41  87 MISG        N/A
*ROSE VALLEY     N/A     54  48  82 MISG        N/A

$$

CAZ034-035-036-272000-
CENTRAL COAST AND SANTA YNEZ VALLEY


CITY           SKY/WX    TMP DP  RH WIND       PRES   REMARKS
SAN LUIS OBISP PTSUNNY   62  54  74 CALM      30.21S
SANTA MARIA    MOSUNNY   68  49  50 VRB3      30.21S

CITY           SKY/WX    TMP DP  RH WIND       PRES   REMARKS
*CAL POLY SLO    N/A     61  50  67 N12         N/A
*LOMPOC        SUNNY     64  54  68 E6        30.21F
*PISMO BEACH     N/A     63  54  74 SW1       30.22R
*SANTA YNEZ    FAIR      61  52  72 CALM      30.21F

$$

CAZ037-038-051-272000-
SAN LUIS OBISPO COUNTY INTERIOR AND CUYAMA VALLEY


CITY           SKY/WX    TMP DP  RH WIND       PRES   REMARKS
*CUYAMA          N/A     57  49  74 CALM      30.18F
PASO ROBLES    CLOUDY    57  50  77 CALM      30.24R

$$

CAZ032-033-061-272000-
SOUTHERN DESERTS


CITY           SKY/WX    TMP DP  RH WIND       PRES   REMARKS
BLYTHE         SUNNY     63  56  78 CALM      30.24F
IMPERIAL       CLOUDY    63  54  72 NW3       30.23F
PALM SPRINGS   MOSUNNY   64  52  64 CALM      30.25F
THERMAL        PTSUNNY   66  55  67 CALM      30.22F

$$

ELSEWHERE ACROSS THE WESTERN UNITED STATES AND MEXICO


CITY           SKY/WX    TMP DP  RH WIND       PRES   REMARKS
DENVER, CO     PTSUNNY   71  20  14 SW9       30.11F
GRAND CANYON,  CLOUDY    45  42  89 SW9       30.35F
HONOLULU, HI   MOSUNNY   75  61  60 E13       29.99R
KAHULUI, MAUI  MOSUNNY   73  63  68 NE14G20   29.99R
LAKE TAHOE, CA LGT SNOW  37  31  78 S5        30.25R WCI  33
LAS VEGAS, NV  PTSUNNY   57  48  72 CALM      30.23F
MAMMOTH LAKES, DRIZZLE   36  36 100 SE3       30.23S
MEXICO CITY, M SUNNY     70  32  24 NW7       30.37F
PHOENIX, AZ    PTSUNNY   64  49  57 E5        30.24F
PORTLAND, OR   CLOUDY    45  44  97 E5        30.15S FOG
RENO, NV       CLOUDY    46  40  79 NW3       30.21R
SALT LAKE CITY CLOUDY    51  35  54 SE14      30.20F
SAN DIEGO, CA  MOSUNNY   71  47  42 CALM      30.19F
SAN FRANCISCO, CLOUDY    61  52  72 N9        30.19R
SAN JOSE, CA   CLOUDY    65  44  46 E12       30.19R
SEATTLE, WA    LGT RAIN  50  48  93 SW7       30.09R FOG
TIJUANA, MEX   MOSUNNY   70  46  43 CALM      30.20F

$$

STATION/POSITION TIME  TEMP    WIND        PRES    VSBY  WAVE
                       AIR SEA DIR/SP/G                  HT/PER
                 (UTC) (F)     (DEG/KT/KT) (MB)    (MI)  (FT/S)
POINT ARGUELLO B NOT AVBL
WEST SANTA BARBA 1900   61 61  110/  8/ 10 1022.4R         6/14
POINT CONCEPTION NOT AVBL
EAST SANTA BARBA NOT AVBL
SANTA MONICA BAY 1900   62 62   50/  4/  6 1023.2R         5/15


USA.gov is the U.S. government's official web portal to all federal, state and local government web resources and services.